Temp
18 18 18 18 18 18 18 18 18 18 18 19 19 19 19 19 19 19 19 19 19 19 19 20 20 20 20 20 20 20 19 20 20 19 19 17 17 18 18 19 19 20 21 21 22 22 22 22 22 21 23 22 20 20 19 17 17 19 23 22 21 21 20 21 20 19 20 20 17 15 15 17 17 14 12 12 12 13 12 11 12 11 10 10 8 6 6 7
18 18 18 18 19 19 19 19 19 18 19 19 19 19 19 19 19 19 19 19 19 19 19 20 20 20 20 20 20 20 19 19 20 19 18 17 17 18 19 19 20 20 21 21 22 22 23 23 21 21 23 22 19 20 20 18 18 20 21 21 22 21 20 19 20 19 18 20 18 15 15 16 17 16 13 14 15 13 13 13 12 12 12 10 7 6 6 6
18 18 18 18 19 19 19 19 19 19 19 19 19 19 19 20 20 20 20 19 19 19 19 20 20 20 20 20 20 19 19 20 20 19 18 17 18 19 19 20 20 20 21 21 21 22 22 22 21 21 22 22 19 19 21 19 18 19 19 23 22 19 18 16 17 18 16 17 17 15 14 14 16 15 14 15 16 14 14 15 14 13 14 12 8 7 6 6
18 18 18 18 19 19 19 19 19 19 19 19 19 19 20 20 20 20 20 20 20 20 20 20 20 20 20 20 19 19 19 21 20 18 18 18 18 19 19 20 20 20 20 21 21 21 21 21 21 21 22 22 19 19 20 18 18 18 19 22 19 17 18 16 15 16 14 15 17 16 13 14 14 14 14 15 15 15 15 17 16 15 16 14 9 7 7 7
18 18 18 18 19 19 19 19 19 19 19 19 19 19 19 20 20 20 20 20 20 20 20 20 20 20 20 20 19 19 19 21 19 17 18 18 18 19 19 20 20 20 20 21 21 21 21 21 21 21 21 21 20 20 20 16 16 18 17 16 16 16 18 15 13 13 12 13 15 15 14 15 14 13 14 15 16 18 17 16 17 17 17 14 9 7 7 7
18 18 18 18 19 19 19 19 19 19 19 19 19 19 19 19 19 19 20 20 20 20 20 20 20 20 20 20 20 19 20 21 18 18 18 18 18 19 19 20 20 20 20 20 20 20 21 21 22 21 20 20 19 19 19 15 15 19 17 14 14 15 16 14 12 11 11 14 15 14 15 14 13 14 14 14 16 18 15 12 14 14 13 12 10 8 7 8
18 18 19 19 19 19 19 19 19 19 19 19 19 19 19 19 19 19 19 20 20 20 19 20 20 20 20 20 20 20 20 19 17 18 18 18 19 19 20 19 20 20 19 19 20 21 21 22 22 20 20 19 18 18 17 15 16 19 18 14 14 14 14 12 11 10 10 14 14 13 14 13 14 15 13 12 15 16 12 9 9 10 9 10 9 8 8 8
18 19 19 19 19 19 19 19 19 19 19 19 19 19 19 19 19 19 19 20 20 20 20 20 21 20 20 20 20 20 19 19 17 18 18 18 18 19 20 19 20 19 19 19 19 20 21 21 21 19 20 19 17 17 15 16 18 18 17 15 14 13 12 11 10 11 11 12 12 11 14 14 14 13 11 12 15 16 12 9 8 8 8 9 9 9 9 9
19 19 19 19 19 19 19 19 19 19 19 19 19 19 20 19 20 20 20 20 20 20 20 20 20 20 20 20 20 20 19 17 17 18 18 18 18 19 20 19 20 19 19 19 18 20 21 21 20 19 20 17 17 17 14 17 19 16 15 15 14 13 12 11 12 11 11 12 11 13 15 14 12 11 13 14 15 15 12 10 9 8 8 8 9 9 9 9
19 19 19 19 19 19 19 19 19 19 19 19 19 19 20 20 20 20 20 20 20 20 20 20 20 20 20 19 20 20 18 17 17 18 18 18 19 20 20 20 20 19 19 18 17 18 19 20 19 19 19 17 16 16 14 16 17 14 14 15 14 13 12 12 13 12 11 12 11 14 16 14 11 11 16 16 13 12 11 10 9 8 10 9 9 9 9 9
19 19 19 19 19 19 19 19 19 19 19 19 19 19 19 19 20 20 20 20 20 20 20 20 20 20 20 20 21 20 17 17 17 18 18 18 19 20 20 19 20 19 19 18 16 16 17 18 18 18 20 18 17 15 14 14 14 13 14 15 14 14 13 13 13 12 12 13 11 13 15 13 11 11 16 15 9 9 11 11 9 9 10 10 9 9 9 9
18 18 19 19 19 19 19 19 19 19 19 19 19 19 19 19 20 20 20 20 20 20 20 20 20 20 20 20 20 18 17 17 17 17 18 19 19 19 19 19 19 20 19 18 16 16 17 17 18 19 18 18 17 16 15 12 13 14 14 17 16 15 16 14 13 12 13 14 12 12 15 14 11 12 16 13 8 9 10 11 10 9 10 10 9 9 9 9
18 18 18 18 19 19 19 19 19 19 19 19 19 19 19 19 19 20 20 20 20 20 20 20 20 19 20 20 18 17 17 17 17 17 18 19 18 18 18 19 19 19 19 19 17 17 18 18 19 18 16 17 17 15 15 13 13 14 15 17 17 18 18 14 13 12 13 14 11 12 17 19 15 14 16 12 9 9 10 11 11 10 10 9 9 8 9 9
18 18 18 18 19 19 19 19 19 19 19 19 19 19 19 19 20 20 20 20 20 20 20 20 19 20 20 19 17 17 17 17 18 18 18 18 18 18 18 18 18 18 19 18 17 17 18 17 18 16 14 15 15 14 15 15 15 15 16 16 17 19 19 14 12 13 14 13 11 13 17 20 19 17 16 11 9 11 12 13 13 11 10 9 9 8 9 9
18 18 18 18 19 19 19 19 20 20 20 19 19 20 20 20 20 20 20 20 20 20 20 19 19 20 19 18 17 17 17 17 17 17 17 18 18 18 18 18 18 18 18 18 17 17 17 18 18 16 14 13 14 16 17 17 16 16 17 18 17 18 19 16 12 12 14 13 11 14 16 19 20 18 14 10 10 10 12 15 14 13 11 10 10 9 9 9
19 19 19 18 18 19 19 19 20 20 20 20 20 20 20 20 19 20 20 19 20 20 20 20 19 20 20 19 18 18 17 17 16 16 17 17 18 18 18 18 18 18 18 18 18 18 18 18 14 13 15 15 16 18 18 18 18 17 17 20 18 17 18 17 13 10 12 13 12 14 16 18 19 16 11 8 9 10 11 14 14 13 12 11 10 10 9 10
19 19 19 19 19 19 19 19 20 20 20 20 20 19 19 19 19 20 20 19 20 20 19 19 19 19 19 18 18 17 16 16 16 16 17 17 17 18 18 18 17 17 18 18 18 18 18 16 12 13 16 16 16 18 19 20 20 18 17 18 18 16 17 18 15 10 10 12 13 14 14 16 18 16 13 10 10 10 11 13 14 14 13 12 11 10 10 10
19 19 19 19 19 20 20 20 20 20 20 20 20 19 19 19 19 19 19 19 19 19 20 19 19 20 19 18 17 17 15 16 16 15 16 17 17 17 18 18 17 17 19 19 18 18 17 16 15 17 18 16 16 18 20 19 19 19 18 19 18 16 16 17 16 12 10 12 13 14 13 15 17 17 17 14 11 11 12 13 13 13 13 13 11 10 10 10
19 19 20 20 20 20 20 20 20 20 20 20 19 19 19 19 19 19 19 19 19 19 19 18 18 19 18 17 16 16 15 15 16 16 16 16 17 17 17 17 16 18 19 20 19 16 16 17 18 19 19 18 18 18 19 18 17 18 18 18 18 17 17 17 15 11 10 12 13 14 14 15 16 17 18 17 13 12 13 13 13 13 13 12 11 10 10 9
19 20 20 20 20 20 20 20 20 20 20 20 19 19 20 20 19 20 18 17 15 14 15 15 15 17 17 16 15 15 15 15 16 15 15 16 16 16 17 17 17 19 18 18 18 13 13 18 20 19 19 18 16 14 14 14 14 15 16 16 16 16 17 17 14 9 9 12 15 15 14 15 16 16 17 17 15 13 13 13 13 13 12 11 11 10 10 10
20 20 20 20 20 20 20 20 20 20 20 20 20 20 20 19 19 19 17 15 12 10 12 13 12 14 15 14 14 14 15 16 16 15 15 15 15 17 18 17 19 20 15 13 15 12 13 19 20 17 16 13 12 11 11 13 13 14 15 16 16 16 17 16 12 9 9 11 15 15 14 14 15 16 17 16 14 14 13 13 13 13 12 11 11 10 10 10
20 20 20 20 20 20 20 20 20 20 20 20 20 18 17 17 17 17 17 17 15 11 12 12 12 14 14 14 13 12 15 17 17 16 15 15 16 18 18 17 19 19 14 13 16 16 18 20 17 12 11 10 10 9 11 13 12 14 15 16 16 16 16 15 10 9 10 11 15 14 13 14 15 16 17 14 13 13 12 11 11 11 11 11 11 10 10 10
20 20 20 21 20 20 20 20 20 20 20 20 19 17 16 16 16 16 17 18 17 13 13 14 14 15 15 15 13 13 16 16 16 17 14 15 16 15 17 18 18 17 15 16 18 19 20 18 12 8 9 11 11 10 11 13 13 15 15 16 17 16 15 16 12 10 11 11 13 12 11 13 15 16 16 12 9 10 10 9 9 9 9 10 10 10 10 10
20 20 20 21 21 21 20 20 20 20 20 19 18 16 16 16 16 16 16 17 17 15 14 13 13 14 15 15 13 14 16 14 14 16 13 14 15 13 15 16 16 17 16 15 16 18 18 13 7 8 9 11 12 11 12 14 16 15 15 16 17 16 14 15 13 11 13 11 10 11 14 16 16 17 18 13 9 10 10 9 9 9 8 9 8 9 9 9
20 20 20 20 21 21 20 20 19 19 19 18 17 16 16 16 15 16 17 17 17 16 14 13 13 14 14 14 14 14 14 13 13 14 12 12 13 14 14 12 14 18 16 13 15 18 16 8 6 10 10 11 12 13 13 15 17 17 15 14 14 14 13 13 13 12 15 14 11 12 17 19 18 18 20 16 13 14 12 10 11 11 9 9 8 10 10 9
20 20 20 20 21 20 20 20 19 18 19 18 17 16 15 16 15 16 17 18 19 17 16 16 15 15 14 14 13 13 15 16 13 11 11 11 11 13 15 12 13 16 14 13 15 15 11 6 7 10 11 11 12 14 13 13 16 17 13 10 11 12 11 12 12 12 15 16 12 12 15 17 18 19 18 15 15 17 15 13 13 12 11 10 10 11 11 11
19 20 20 20 20 20 21 20 19 19 19 17 16 16 16 16 15 16 17 19 19 17 16 17 16 15 15 12 11 14 18 16 13 12 11 11 11 12 16 15 14 14 12 14 17 14 10 8 8 10 11 12 13 15 14 12 16 16 10 8 10 11 11 11 11 12 13 13 12 11 13 15 16 18 16 13 16 18 17 16 16 14 12 11 11 11 11 10
19 19 20 20 20 20 20 19 19 18 18 17 16 16 16 16 15 16 18 20 19 16 16 16 15 15 14 11 11 15 15 14 15 14 10 10 12 13 16 16 15 15 11 14 19 14 10 11 11 11 12 14 15 14 11 12 15 13 8 8 10 9 10 10 11 12 11 11 13 13 12 14 16 18 15 14 17 18 17 17 16 15 14 12 11 11 10 10
19 19 19 19 19 19 19 19 18 17 17 16 16 16 16 15 16 17 19 20 18 16 16 16 15 14 13 13 13 13 13 13 15 14 10 11 12 13 15 14 13 14 11 13 18 14 10 10 10 11 14 14 13 10 8 11 13 10 7 8 8 8 9 10 11 12 10 11 14 13 12 14 17 19 18 16 17 16 16 16 15 14 14 12 11 11 10 10
19 19 19 19 19 19 19 18 17 17 16 16 16 16 16 16 17 19 20 19 18 17 15 16 16 14 14 16 16 14 14 14 12 12 12 13 13 12 11 9 11 13 12 12 14 12 8 7 7 10 12 11 10 7 6 9 9 8 9 10 11 10 9 10 11 11 12 14 13 10 11 13 15 18 19 17 15 14 14 15 15 14 13 12 11 10 10 10
19 19 19 19 19 18 18 17 16 16 16 16 16 16 17 18 18 19 19 17 17 17 16 16 15 13 13 15 16 14 14 14 11 12 15 14 14 14 12 12 14 14 15 15 14 11 9 9 10 9 8 8 10 9 7 7 7 9 11 13 14 14 12 12 11 11 14 16 12 8 10 11 14 17 19 16 13 12 12 13 13 13 12 12 11 11 10 10
18 19 18 18 18 18 18 17 16 16 16 16 16 17 18 19 19 20 19 17 17 17 16 15 13 12 12 13 14 13 12 13 12 12 13 13 14 15 13 14 16 16 18 17 16 15 13 11 10 8 7 7 11 13 11 9 9 11 13 14 15 16 15 15 15 14 15 14 10 9 10 11 14 17 17 16 14 12 11 11 12 11 11 11 11 10 10 10
18 18 18 18 18 17 17 16 16 16 17 16 17 18 19 19 19 18 17 18 18 15 13 12 12 11 12 14 14 11 11 13 12 11 11 11 14 13 10 9 11 15 18 16 16 18 16 12 9 10 10 7 10 14 14 13 12 12 14 15 15 15 15 15 15 15 15 13 9 8 10 12 15 16 15 14 14 11 10 10 10 9 9 10 10 10 10 10
18 18 17 17 17 17 16 16 16 16 17 17 18 19 19 19 18 15 16 18 15 12 11 11 12 12 12 14 13 10 12 14 11 11 12 12 15 16 13 10 9 12 16 15 15 16 17 16 12 11 10 8 9 11 12 13 13 12 12 13 14 15 14 14 15 14 14 13 10 8 10 13 16 15 13 12 12 10 9 9 9 9 9 9 10 10 10 10
18 17 17 17 17 17 16 16 17 17 17 18 19 19 19 19 18 16 17 16 14 13 12 10 11 15 15 14 11 9 12 14 11 12 13 14 16 16 15 13 10 11 14 16 15 13 16 17 11 8 7 8 9 8 7 11 13 11 10 12 14 13 14 14 12 11 11 11 10 9 11 14 15 15 12 12 11 10 10 10 10 10 9 9 10 10 10 10
18 17 17 17 16 16 16 17 17 17 18 18 19 19 18 18 17 16 15 13 13 14 14 13 13 16 17 15 13 11 10 12 12 14 14 13 14 13 12 11 9 9 13 15 15 13 16 16 9 7 8 7 8 7 7 10 13 12 11 13 12 9 12 13 11 9 8 10 12 12 13 14 15 15 13 12 12 11 11 10 10 10 9 9 10 9 9 9
17 17 17 16 16 16 16 16 17 17 18 18 19 18 17 15 14 13 12 11 11 11 14 17 15 15 16 16 16 13 11 12 12 14 16 14 13 13 11 10 7 7 9 11 13 13 14 15 10 8 10 7 5 6 7 7 9 12 13 12 10 8 10 12 11 11 11 12 13 12 12 14 14 14 14 13 12 11 11 10 9 10 9 9 9 9 9 9
17 17 16 16 16 16 16 17 17 18 18 18 18 16 14 13 11 9 9 9 10 11 14 17 15 14 15 15 16 13 12 15 15 15 16 16 14 12 11 10 7 6 6 8 12 13 12 15 12 7 9 9 5 7 10 8 7 10 11 10 10 11 12 11 11 12 12 12 13 11 10 12 13 14 15 13 11 10 10 10 9 9 9 9 9 9 9 9
17 17 17 16 16 16 16 17 16 17 18 18 19 17 13 12 9 6 6 8 10 12 14 15 14 13 13 14 15 13 11 14 15 14 15 15 14 11 10 11 9 6 5 7 12 13 11 14 14 8 8 9 9 10 13 12 9 8 9 9 9 10 11 11 10 11 11 11 12 11 10 12 14 14 14 12 10 10 9 9 9 9 9 9 9 8 8 8
16 17 18 16 16 16 16 17 17 18 18 16 16 15 11 11 9 5 4 6 9 11 13 14 13 13 14 12 12 12 11 11 12 13 14 14 14 12 8 8 9 8 6 6 10 12 12 13 14 11 9 10 12 12 13 14 12 10 10 10 9 9 9 9 9 9 10 11 11 10 10 13 14 13 12 11 10 9 9 8 9 9 9 9 9 8 8 8
15 18 18 15 16 16 16 18 15 14 16 15 13 13 10 10 9 6 4 4 7 9 9 11 12 13 14 13 12 11 11 11 11 12 14 12 14 14 7 3 6 7 8 9 11 11 12 13 13 13 12 13 13 9 7 9 10 11 12 12 11 10 9 10 10 8 7 9 10 9 10 12 13 11 12 11 10 9 9 8 9 9 9 9 8 8 8 7
16 18 17 15 17 17 17 17 10 7 13 15 11 10 9 8 8 8 6 5 7 8 8 9 11 11 12 13 12 11 11 12 11 11 13 12 13 13 5 -1 -0 3 7 11 11 8 10 11 11 12 13 13 10 5 4 5 6 8 9 9 10 10 10 12 11 9 7 7 7 7 8 10 12 11 11 11 9 9 9 9 9 9 9 8 8 8 7 7
17 18 17 16 16 16 17 17 12 10 14 11 7 7 7 7 8 8 7 7 8 8 9 10 10 10 11 11 11 11 12 12 12 12 13 12 10 7 1 -2 -1 2 7 11 10 8 9 11 11 12 13 11 7 5 5 4 6 8 8 7 8 9 9 9 9 8 8 8 8 8 8 10 11 10 10 10 9 9 9 9 8 8 8 8 7 7 7 7
14 14 14 16 17 17 18 17 16 16 14 9 8 9 7 6 7 8 8 9 9 9 10 10 10 10 10 9 10 11 11 13 13 12 11 11 9 2 -2 -2 -0 4 7 8 8 8 10 12 12 12 14 13 11 10 9 7 8 10 10 7 6 6 6 6 6 6 7 9 10 9 9 12 12 10 11 11 10 9 9 9 8 8 7 7 7 7 7 7
14 13 14 15 15 15 14 13 14 16 14 12 12 11 9 8 7 6 8 8 7 8 10 10 8 8 8 8 9 10 10 12 13 11 9 10 7 1 -3 -3 -2 2 4 2 3 6 9 11 11 12 13 13 13 14 12 11 10 10 9 6 5 5 6 7 7 7 7 8 8 9 10 12 13 12 12 12 10 9 8 8 8 7 7 7 7 7 6 6
16 16 16 16 14 12 10 7 10 15 14 13 14 11 11 12 8 5 6 8 7 6 8 8 7 8 9 9 10 11 9 9 10 9 9 10 9 3 -2 -3 -1 1 2 1 1 5 8 9 9 11 12 12 14 13 10 10 10 10 9 8 6 5 4 6 7 7 8 8 7 9 10 10 11 11 11 11 9 8 7 7 7 7 7 7 6 6 6 6
15 16 15 16 15 14 12 9 10 13 12 12 14 12 11 13 11 7 6 7 6 6 7 8 7 9 11 10 12 12 10 9 8 9 9 9 8 4 -2 -2 -0 0 1 2 2 5 9 9 8 9 10 10 12 11 8 8 9 9 9 8 7 5 4 5 7 7 8 7 7 9 9 8 9 10 10 9 8 7 7 6 6 6 6 6 6 6 5 5
14 14 11 11 14 15 14 12 10 11 11 11 11 10 11 13 13 12 9 7 6 6 8 10 9 9 11 10 12 12 10 10 10 10 9 8 7 7 4 2 1 0 1 3 3 5 9 9 7 6 7 9 9 9 8 8 7 8 7 7 7 6 4 5 6 7 7 6 7 9 9 8 9 9 9 8 6 6 6 6 6 6 6 6 5 5 5 5
12 13 8 7 11 12 10 8 8 10 11 11 10 11 12 13 14 12 9 8 9 7 8 12 12 10 9 9 11 12 12 12 12 11 10 9 8 9 9 7 4 1 2 5 4 4 7 9 5 3 6 8 8 7 7 6 6 7 7 7 7 6 5 4 5 6 6 6 7 8 7 7 8 8 7 6 6 6 6 6 6 5 5 5 4 4 4 4
13 14 11 10 11 9 6 6 9 11 11 10 12 12 10 12 14 11 8 10 13 10 8 11 13 9 8 8 9 11 11 11 12 10 9 9 9 8 9 9 7 3 4 5 4 3 6 8 5 4 7 9 7 5 6 6 6 6 7 7 7 6 6 4 4 5 5 5 7 6 6 7 8 7 6 6 6 6 5 5 5 5 5 4 4 4 4 4
11 11 11 14 13 9 8 8 9 12 13 12 13 12 11 12 12 10 10 9 10 11 9 10 12 9 7 7 8 10 10 8 9 9 7 8 8 8 8 8 7 6 5 4 4 4 6 7 5 5 8 9 7 6 7 7 5 5 7 7 7 7 7 5 5 6 6 6 6 6 6 7 7 6 6 6 6 5 5 5 4 4 4 4 4 4 3 3
10 10 10 14 15 10 9 10 9 12 14 12 12 11 11 11 9 9 12 9 6 7 7 8 10 9 8 9 9 8 6 5 6 5 4 5 5 5 5 5 5 6 6 5 3 3 4 6 7 6 8 10 8 7 7 7 7 7 6 6 6 7 7 7 7 7 7 6 6 6 6 6 6 5 5 5 5 4 4 4 4 4 4 4 4 3 3 3
Height
841 841 840 840 840 839 839 839 839 838 838 838 838 838 837 837 837 837 837 837 837 837 836 837 836 836 835 835 835 834 834 834 834 833 833 835 835 834 832 831 830 829 829 828 827 827 827 827 826 826 825 826 829 830 833 834 835 833 832 839 841 842 844 840 842 844 842 843 849 855 854 851 853 859 862 863 862 862 863 864 863 863 864 863 864 865 867 867
842 842 841 841 840 840 840 839 839 839 839 838 838 838 838 838 838 837 837 837 837 837 837 836 836 836 835 834 834 833 833 834 833 833 834 835 834 833 832 831 830 829 829 828 827 827 826 827 826 826 826 828 832 832 833 835 835 835 837 839 837 838 841 841 839 842 844 842 847 853 854 853 851 854 860 859 856 860 861 859 861 862 860 862 863 865 865 867
843 842 842 841 841 841 840 840 840 840 839 839 839 838 838 838 838 838 837 838 837 837 836 836 836 835 835 834 833 832 833 833 833 834 835 834 833 832 831 830 829 829 828 828 827 827 827 827 826 827 827 829 834 833 832 836 837 839 841 836 836 840 843 848 845 844 848 846 847 852 856 857 853 854 859 856 854 858 856 852 855 857 853 856 860 863 864 865
843 842 842 842 841 841 841 841 840 840 840 839 839 838 838 838 838 837 837 837 837 837 836 836 835 835 835 833 832 832 832 832 834 836 835 834 833 831 830 830 829 828 828 828 827 827 827 827 827 827 828 831 836 835 835 839 839 840 841 836 840 845 844 849 850 849 853 851 848 851 858 858 855 857 857 854 853 852 849 844 845 847 845 849 856 860 862 863
843 842 842 841 841 841 841 841 840 840 840 840 839 839 838 838 837 837 837 837 837 837 836 835 835 834 834 833 833 832 832 834 837 836 835 834 832 831 830 829 828 828 827 827 827 827 827 827 827 828 829 832 835 835 838 844 842 841 847 848 849 848 845 851 855 854 857 854 852 854 856 854 856 858 855 853 849 841 839 839 839 840 841 846 852 857 859 861
843 842 842 841 841 841 840 840 840 840 840 839 839 839 838 838 837 836 836 836 837 836 836 835 834 834 834 834 833 831 832 837 838 835 835 834 832 831 829 829 828 827 827 827 828 827 827 827 827 830 832 835 839 838 840 846 844 840 847 854 853 850 849 854 857 859 859 854 853 854 853 854 856 854 853 853 845 836 838 841 841 842 844 846 850 854 856 857
843 842 841 841 841 840 840 840 840 840 839 839 839 839 838 838 837 836 836 836 836 836 835 834 833 833 833 833 833 832 833 836 837 835 835 833 831 830 828 829 828 827 827 827 828 827 828 828 828 833 835 837 841 842 843 846 844 840 845 853 853 853 853 856 859 860 860 853 853 856 854 855 853 851 855 852 840 837 842 844 845 845 847 848 850 852 853 853
843 842 841 841 841 840 840 840 840 839 839 839 838 838 838 838 837 837 836 836 836 836 835 833 832 833 833 833 833 834 835 837 837 835 835 833 832 830 828 828 827 827 827 827 828 827 827 828 830 833 835 840 841 842 847 844 841 842 846 851 853 855 855 859 859 858 859 855 857 858 854 853 852 855 856 847 836 837 841 844 847 848 848 849 849 850 851 851
842 842 841 841 841 840 840 840 840 839 839 839 838 838 838 838 837 837 837 836 836 836 835 834 833 833 833 833 833 834 837 838 837 835 834 833 832 831 829 829 827 827 827 827 828 827 827 829 831 831 833 841 842 843 849 843 840 845 848 850 852 854 856 858 856 857 858 856 858 855 850 852 856 858 848 835 833 835 839 843 845 847 848 848 848 848 849 849
842 842 841 841 841 840 840 840 839 839 839 838 838 838 838 838 837 837 837 836 836 836 835 834 834 833 833 833 833 836 838 837 836 835 834 833 832 831 830 829 828 827 827 828 828 828 828 828 830 830 831 839 842 846 850 845 844 849 851 850 851 854 856 856 854 856 857 855 858 852 847 850 857 859 839 827 835 837 838 842 844 846 845 845 846 846 847 847
842 842 841 841 840 840 840 840 839 839 838 838 838 838 838 838 837 837 837 836 837 836 835 835 834 834 833 833 833 837 838 837 836 835 834 833 832 831 830 829 828 827 827 828 829 829 828 828 830 830 831 836 841 847 851 850 850 852 851 849 851 853 853 854 853 855 855 853 856 854 850 851 859 856 834 828 839 839 838 840 843 844 842 843 844 845 845 845
842 842 841 841 841 841 840 840 839 839 839 838 838 838 838 837 837 837 836 836 836 835 835 834 834 834 833 833 834 837 838 837 836 835 834 834 833 832 831 830 829 828 827 828 829 829 829 830 830 831 835 837 842 847 850 854 854 852 850 847 848 849 848 850 852 855 853 851 855 856 847 842 850 844 826 830 839 839 840 839 840 842 841 842 842 843 843 843
843 842 842 841 841 841 840 840 839 839 839 838 838 838 838 837 836 836 836 836 835 835 834 834 834 834 833 835 837 838 837 837 836 835 835 834 833 833 832 831 830 829 828 828 829 830 830 831 830 834 838 839 844 849 850 854 854 851 851 847 845 843 842 848 852 854 853 852 856 857 839 822 828 830 822 832 838 838 839 836 837 838 839 841 841 841 841 841
843 842 842 842 841 841 840 840 839 839 839 839 839 838 838 837 836 835 835 835 834 834 834 834 834 833 834 837 838 838 837 837 836 835 834 834 834 833 833 832 831 830 829 829 831 831 831 832 831 835 841 843 847 851 850 852 851 850 850 848 847 839 836 847 854 851 849 853 856 855 843 818 813 819 821 831 835 836 834 830 832 833 836 838 838 839 838 838
843 843 843 842 841 841 840 840 840 840 839 839 838 837 837 837 836 835 835 835 834 834 834 834 834 833 835 837 838 838 838 837 836 835 834 834 834 834 833 833 832 831 831 831 831 832 833 832 833 838 846 849 848 848 848 849 849 850 847 842 846 843 836 842 853 853 848 853 855 852 843 821 809 815 823 831 834 835 831 825 827 828 832 834 834 836 835 835
844 843 842 842 842 841 841 840 840 840 839 839 838 837 837 836 836 835 835 835 834 834 834 834 834 834 835 837 837 837 837 837 837 836 835 834 834 833 833 833 833 832 832 832 831 833 832 833 841 847 847 848 847 844 844 846 844 849 847 838 842 846 839 839 851 859 854 852 853 849 842 825 812 818 829 834 833 834 831 825 824 825 827 829 830 832 832 833
844 843 843 842 841 841 841 840 840 839 839 838 838 837 836 836 836 835 835 835 834 835 834 834 834 834 836 837 837 838 838 838 837 836 835 835 834 833 833 833 833 832 832 832 831 832 833 837 847 848 845 848 849 846 844 842 836 841 848 843 842 846 844 838 843 857 860 854 850 849 847 832 815 815 824 830 830 831 829 823 822 822 823 825 827 828 829 830
844 843 842 842 842 842 841 840 840 839 838 838 837 836 835 835 835 835 835 834 834 834 834 835 834 836 840 838 838 839 839 838 837 836 835 834 834 833 833 832 833 832 832 833 833 834 835 840 844 843 844 848 848 845 843 840 836 838 843 840 840 844 845 840 840 852 858 855 850 847 846 835 819 811 811 818 825 825 821 819 819 819 819 821 824 826 827 828
844 843 843 842 842 841 841 840 839 838 837 836 835 835 834 834 835 835 835 834 836 836 837 838 837 839 841 840 840 839 838 839 837 836 835 834 834 833 833 832 832 832 832 832 833 839 840 840 842 841 841 843 844 844 842 844 845 843 844 843 842 842 840 838 843 855 859 854 848 843 840 832 821 812 806 810 818 819 816 816 816 816 818 819 822 824 826 826
844 844 843 843 842 841 841 840 839 838 836 835 835 834 835 836 837 837 837 838 841 843 843 842 841 841 840 840 840 839 838 838 837 837 835 834 833 833 832 832 833 832 836 837 837 846 848 840 838 838 838 842 848 853 853 853 854 851 849 848 846 844 839 834 845 860 863 853 838 835 837 832 822 812 806 809 813 814 813 814 814 814 816 818 821 822 823 824
844 844 843 843 842 841 840 839 839 837 836 835 834 835 836 838 839 839 840 842 845 846 845 844 844 842 840 841 841 839 839 837 837 836 834 834 833 832 832 834 834 833 843 850 845 848 848 838 836 840 846 853 859 863 861 857 858 854 850 848 846 845 839 837 851 860 862 854 836 833 838 832 823 809 804 809 811 811 812 812 812 812 815 817 819 821 821 821
845 844 843 843 842 841 840 839 838 837 837 836 835 836 837 838 839 839 839 842 844 845 845 844 844 842 842 842 840 840 839 836 836 835 834 834 831 832 833 834 835 837 848 851 843 843 841 835 842 853 859 863 865 867 862 858 859 853 849 848 843 841 838 841 855 861 860 854 836 834 840 831 818 806 804 812 813 813 814 815 815 814 816 817 818 820 820 820
845 844 843 842 842 841 839 839 838 838 837 837 837 837 838 838 839 839 838 839 843 845 845 844 843 843 841 840 841 840 838 839 838 835 836 834 833 837 835 834 838 841 845 843 838 839 836 838 855 866 864 860 862 866 862 857 854 849 848 845 838 840 842 839 849 858 856 852 844 842 842 828 813 805 806 817 822 819 819 820 820 820 819 818 818 819 820 819
845 844 843 842 841 840 839 839 838 838 838 838 838 838 839 839 839 839 839 843 845 844 844 844 844 843 842 841 841 840 839 842 842 838 838 836 837 840 839 841 842 840 844 845 844 840 838 854 869 869 864 860 859 861 860 852 844 845 848 844 838 841 846 842 846 853 846 849 855 845 826 811 808 804 800 812 822 818 817 819 818 819 820 820 820 820 820 819
845 844 843 842 841 840 839 838 838 838 838 838 838 839 839 839 839 839 839 844 846 843 844 844 844 843 843 842 841 841 841 842 843 841 841 840 840 840 843 848 843 837 844 851 848 839 844 866 872 864 863 862 857 855 854 849 841 840 845 848 846 846 851 849 850 850 837 837 851 844 822 805 803 801 796 805 813 808 811 816 813 814 818 819 820 817 817 817
845 844 843 842 840 840 838 838 839 839 838 839 839 839 839 838 840 838 839 846 846 844 845 843 843 843 842 842 842 841 840 840 844 843 842 842 842 841 842 848 846 842 848 851 846 845 857 872 871 862 861 861 858 852 851 853 844 838 849 858 857 855 856 853 853 851 836 830 844 850 838 819 806 799 801 810 810 802 805 809 809 812 815 816 817 814 815 816
845 844 843 841 841 840 838 838 839 838 838 839 839 839 839 839 840 838 842 848 846 844 845 843 843 843 842 844 844 840 838 840 844 844 844 843 842 842 839 842 845 845 853 849 839 847 861 869 868 863 860 857 852 847 849 854 843 841 860 866 859 858 857 856 856 852 844 842 845 849 844 833 820 807 807 815 807 799 802 803 805 809 813 815 816 817 818 819
845 844 842 842 841 839 839 839 838 839 839 838 839 839 838 839 839 839 844 849 848 845 844 843 842 842 842 844 844 842 843 844 842 841 845 844 842 842 838 840 842 843 854 848 833 845 859 859 860 860 856 851 846 849 855 853 844 851 868 867 862 864 860 859 857 849 854 853 839 840 843 836 821 805 808 814 805 803 806 805 807 809 813 817 818 820 821 821
846 844 843 842 840 840 840 839 838 839 838 839 839 838 839 839 838 840 846 849 847 845 845 843 841 843 845 844 844 846 846 846 844 842 845 844 842 842 841 844 846 846 854 849 836 846 858 858 859 856 850 847 850 862 866 857 851 861 872 869 867 868 863 862 856 849 858 852 834 838 844 834 816 798 799 805 803 808 811 808 811 813 814 818 819 821 821 820
845 844 843 842 840 840 839 839 839 838 839 839 838 838 839 838 839 846 851 850 846 846 845 842 843 847 847 843 843 847 847 846 849 847 844 844 843 844 848 852 850 847 850 851 845 851 863 866 865 859 855 855 860 870 873 866 865 868 866 860 855 857 861 861 856 855 850 837 840 855 852 840 825 801 793 802 809 815 815 812 813 814 816 818 820 821 820 820
845 844 843 841 841 840 839 840 839 838 839 838 838 838 837 839 845 851 853 850 847 846 844 845 850 852 851 848 845 846 848 848 852 848 842 844 843 842 846 846 844 844 842 842 845 853 861 860 859 863 865 865 862 864 871 873 871 867 857 849 843 840 847 849 850 854 837 824 847 867 858 848 833 806 795 804 815 820 820 818 817 818 819 819 819 819 819 819
845 843 842 841 841 840 839 840 839 839 839 837 838 837 838 846 849 849 851 848 846 847 848 851 855 856 857 856 851 853 854 850 852 853 850 850 845 844 849 846 842 840 834 835 840 842 848 854 859 864 867 867 858 851 859 865 864 859 850 847 841 831 832 833 831 833 826 830 858 866 856 847 827 806 802 805 811 819 823 823 822 823 822 820 821 820 819 820
845 844 842 841 841 840 840 840 839 839 838 838 838 836 842 851 851 855 855 847 847 854 857 859 860 861 860 851 851 861 860 851 853 856 858 856 847 849 860 862 856 845 836 841 841 833 838 852 861 859 860 867 861 846 845 850 853 853 847 845 843 839 841 837 827 826 826 838 862 867 857 842 819 807 810 812 815 822 827 828 827 827 826 824 823 821 819 819
844 843 842 842 841 840 840 839 839 839 838 838 837 839 848 852 853 861 857 848 854 860 862 864 861 859 858 851 856 864 855 850 858 857 854 852 843 842 851 860 863 853 843 845 845 841 838 840 851 857 858 865 864 856 854 851 850 853 854 851 846 844 846 840 832 830 829 833 854 867 853 828 812 810 815 817 821 826 829 830 829 827 826 825 822 820 819 818
844 843 842 842 841 840 840 840 839 839 838 837 839 846 852 850 852 858 854 852 858 858 860 867 862 852 851 854 862 867 857 852 858 855 850 847 841 841 846 853 861 859 847 842 847 853 844 837 855 868 867 867 864 866 870 857 849 858 863 854 847 847 845 843 847 853 854 849 850 855 840 816 807 807 813 819 822 825 827 825 825 824 823 823 820 819 819 817
843 843 842 842 841 840 840 839 839 839 837 838 843 850 851 850 852 856 857 859 861 858 855 858 856 847 845 850 855 863 864 858 856 850 847 850 848 850 854 858 866 864 853 846 847 852 843 840 861 871 867 871 869 868 872 860 849 856 857 848 853 863 853 843 853 866 871 856 836 832 825 812 807 806 810 817 817 819 822 822 822 822 821 821 820 820 819 818
843 843 842 842 841 840 841 840 839 839 837 839 845 851 854 856 860 862 864 866 866 865 856 848 851 851 848 849 848 855 861 858 856 849 842 847 850 853 857 863 872 870 864 859 851 853 849 842 858 868 861 868 876 871 869 869 861 852 849 850 860 869 860 852 854 852 850 839 823 826 826 813 810 809 808 812 817 819 821 822 822 820 820 821 819 819 819 818
843 842 842 842 841 841 841 840 840 838 839 844 848 854 859 861 867 871 872 871 868 865 857 849 852 855 855 852 847 856 860 850 849 849 843 843 848 854 858 860 870 874 874 869 854 855 857 843 852 871 864 864 875 868 858 865 869 859 855 859 860 855 849 853 856 845 840 836 823 828 837 824 814 810 804 809 819 823 822 822 822 821 821 821 819 819 819 817
842 842 843 843 842 842 841 840 841 839 840 847 848 852 861 863 870 878 877 875 869 862 857 855 858 858 858 857 852 858 864 853 849 852 847 844 847 857 862 860 866 873 875 871 857 854 859 847 846 864 869 864 864 858 846 849 864 867 862 863 863 858 851 853 858 851 846 842 830 833 837 819 807 806 806 813 824 826 826 825 825 824 822 821 821 820 819 818
843 843 843 844 842 842 842 840 841 840 844 853 853 856 865 866 871 881 881 877 871 864 860 859 862 859 856 861 861 861 867 865 859 854 850 851 850 854 866 867 864 869 874 873 863 856 857 852 845 853 865 860 848 847 843 839 849 858 857 858 861 865 866 862 861 860 854 845 837 839 831 808 804 810 811 818 826 826 829 829 826 824 822 821 821 820 819 818
843 844 844 845 842 843 843 840 848 855 852 855 860 862 868 869 871 877 881 880 875 871 869 864 863 861 856 859 863 864 866 865 866 860 853 855 849 848 870 881 874 871 869 863 861 859 856 853 849 848 849 842 840 855 863 856 855 852 847 849 851 856 861 856 855 867 872 859 847 847 836 811 806 814 814 819 826 826 827 827 824 822 820 820 820 819 819 817
844 846 845 845 842 843 842 844 864 872 858 855 864 867 871 873 873 875 878 879 876 873 874 870 867 866 862 860 863 866 864 860 864 861 854 856 853 853 875 891 890 883 870 858 860 867 863 857 856 850 841 842 854 870 875 871 869 863 857 857 855 854 854 846 846 860 871 869 864 866 856 824 808 815 816 818 824 825 825 825 822 821 820 819 819 818 817 816
846 846 845 844 844 844 843 848 862 865 858 865 875 874 876 876 873 874 876 875 873 872 871 869 868 866 865 866 866 865 862 858 858 857 855 858 863 872 886 894 892 885 871 860 861 869 866 857 856 848 837 847 865 872 874 875 870 862 860 865 864 861 860 857 859 863 863 858 856 859 850 822 809 818 818 817 823 823 822 823 823 821 819 818 818 817 815 813
850 849 847 845 843 842 844 849 854 853 858 870 872 869 875 878 875 873 872 870 872 871 867 866 868 867 869 873 869 865 863 857 853 858 861 860 867 886 895 894 890 881 871 868 866 868 861 851 853 849 837 840 848 849 856 864 862 854 854 868 874 871 875 875 875 876 865 850 845 845 832 811 808 817 814 813 818 819 820 823 823 822 819 816 815 814 812 811
850 849 849 847 844 845 850 856 856 853 859 864 862 865 870 872 876 877 873 872 875 874 867 867 872 872 872 875 871 868 869 861 856 862 868 865 871 889 897 896 894 885 880 884 882 874 863 854 854 849 843 843 838 834 840 846 851 853 857 870 877 875 875 869 865 868 861 851 850 844 825 808 807 812 810 811 817 820 822 823 822 822 820 817 815 813 811 809
848 848 849 848 847 850 859 867 862 855 859 860 858 866 867 863 871 880 877 873 875 877 873 871 874 873 871 871 866 864 869 869 867 868 867 862 867 884 896 895 893 889 885 888 887 877 868 865 860 850 847 845 836 839 852 854 851 851 853 860 869 876 878 869 863 861 854 853 850 838 828 822 816 815 813 815 821 824 825 824 823 822 819 817 815 813 811 809
850 851 854 852 850 853 859 866 864 859 863 861 857 865 866 860 866 873 875 875 876 877 874 873 874 869 864 866 861 860 867 872 872 871 868 866 870 883 895 895 891 890 887 885 884 878 867 862 863 860 856 851 845 849 861 864 858 853 853 856 861 872 879 874 866 856 850 855 846 830 831 833 823 818 818 820 826 829 828 827 825 822 818 816 814 812 810 807
852 856 863 860 855 855 855 861 866 865 865 866 866 868 864 860 860 861 867 875 877 877 871 866 869 867 864 865 860 857 864 866 865 866 867 870 872 874 880 887 889 889 887 883 882 878 865 860 871 876 866 859 859 857 858 863 863 860 861 860 859 867 876 874 866 856 855 860 847 831 833 835 826 821 822 828 832 831 829 826 823 821 818 815 813 810 807 804
856 858 865 865 860 862 866 870 872 867 864 866 867 866 863 858 857 860 868 871 869 874 871 859 858 865 868 868 864 859 859 857 856 861 864 868 871 867 864 870 881 888 885 878 881 883 870 862 878 887 873 861 861 862 863 866 866 864 864 862 859 864 870 872 867 860 860 860 849 840 840 837 830 827 829 832 832 830 828 825 822 820 817 814 812 808 804 803
854 853 860 862 862 869 876 876 870 863 865 868 862 862 866 860 856 862 870 865 858 865 873 861 855 866 872 872 867 860 859 859 857 861 866 867 867 867 862 861 871 883 883 878 883 885 872 867 881 886 868 854 861 870 868 866 867 866 861 858 860 861 865 871 871 865 864 860 851 848 846 836 830 831 833 832 830 829 828 824 821 818 815 814 812 806 803 802
852 852 855 854 858 869 873 872 871 862 860 862 859 861 865 861 860 864 865 867 864 862 866 863 859 867 875 874 870 863 863 868 866 866 871 869 866 868 867 867 871 875 878 882 885 882 874 873 880 880 862 849 858 865 861 862 870 870 863 861 862 859 860 865 865 860 859 856 851 849 845 835 831 833 833 829 828 829 828 826 823 817 814 813 809 805 804 802
853 853 854 851 855 867 870 868 870 863 856 860 863 863 863 863 869 869 859 864 872 869 869 869 865 866 868 866 867 868 870 874 874 874 876 875 873 875 874 875 876 873 874 882 886 888 884 874 872 877 864 848 852 859 855 855 858 860 865 868 864 860 859 858 857 854 852 851 851 848 841 836 837 837 833 828 825 826 827 827 824 818 813 810 806 804 804 801
Wind_Speed
9 8 8 8 8 8 7 7 8 8 6 6 4 3 2 2 2 3 4 3 3 3 2 3 3 4 5 5 5 5 3 5 9 13 11 9 12 12 9 7 8 8 7 5 2 1 1 2 2 2 1 3 3 1 1 3 2 2 2 2 3 3 4 4 7 5 1 2 6 8 9 9 6 6 3 3 5 3 3 6 5 4 6 6 3 2 5 14
8 8 8 7 7 7 7 6 7 7 7 6 5 3 2 2 2 3 3 3 4 4 3 3 4 4 6 6 7 5 2 1 6 12 12 13 13 10 8 6 7 7 6 4 2 0 1 1 2 2 1 1 2 1 1 2 3 1 1 3 3 2 1 0 4 5 1 1 6 8 8 7 5 7 6 5 7 6 7 8 7 9 10 8 4 4 10 16
8 8 8 7 7 7 6 6 6 6 7 6 6 5 3 3 3 2 2 2 3 4 5 5 5 5 5 7 7 4 1 1 3 7 12 15 12 9 8 5 6 7 5 3 1 0 0 2 2 1 0 1 2 1 0 2 2 0 1 4 2 2 2 2 1 4 1 1 6 8 5 5 4 5 6 6 7 8 11 10 9 12 14 11 8 9 13 16
8 8 8 7 7 7 6 6 5 6 6 6 7 7 5 4 3 2 1 0 2 4 5 5 5 4 4 8 9 1 2 1 2 7 13 14 11 9 8 5 6 7 4 1 0 2 3 4 3 2 1 1 2 1 0 3 2 1 1 3 2 2 2 3 1 2 1 1 4 7 5 6 4 4 6 7 7 8 12 13 12 14 15 12 11 12 15 17
8 8 8 7 7 7 6 5 5 5 5 6 7 8 7 5 3 2 2 2 3 4 6 6 5 4 3 7 8 2 3 2 2 9 14 14 11 9 7 5 7 6 2 1 2 4 4 3 2 2 1 1 1 0 1 3 2 1 0 2 2 1 1 3 1 1 2 0 3 6 6 5 4 4 9 10 10 8 5 9 13 12 9 10 14 14 16 17
8 9 8 7 7 6 6 5 5 5 5 6 6 8 9 8 5 1 1 1 2 4 7 8 6 4 3 4 6 1 2 0 5 10 14 13 10 9 6 5 7 4 1 3 3 3 3 1 1 1 1 1 1 0 2 2 2 1 1 1 0 1 1 3 1 2 2 3 5 5 3 3 5 7 8 12 16 8 4 2 4 3 2 8 14 15 16 17
9 9 8 8 7 6 6 5 4 4 4 5 5 6 9 10 7 4 3 2 2 5 9 9 5 3 3 2 4 3 1 2 6 12 13 10 9 10 5 4 7 3 1 2 3 3 3 1 2 1 2 2 1 1 2 1 1 1 2 4 1 1 2 1 1 2 2 3 3 2 2 4 9 7 2 10 20 11 3 5 2 2 4 8 12 14 16 18
9 9 8 7 6 5 5 4 4 3 4 4 3 3 6 9 7 5 4 4 4 6 10 12 6 1 2 1 1 1 3 2 8 13 11 7 7 10 6 4 6 2 1 1 2 3 4 2 2 3 1 2 1 2 2 1 2 1 3 5 2 2 2 1 1 2 2 1 1 2 5 5 5 2 3 12 19 13 5 4 2 2 5 8 11 14 15 16
10 9 8 6 5 5 4 4 4 4 3 3 4 3 4 8 6 4 3 3 5 6 9 11 9 3 1 0 0 1 2 3 9 12 8 5 6 9 9 7 7 2 2 2 1 1 3 2 3 4 2 4 2 2 2 2 1 2 4 5 4 3 2 1 1 2 1 2 2 6 8 4 2 3 9 16 15 8 6 5 4 5 7 9 10 13 14 15
11 10 8 6 4 4 4 4 4 5 4 4 4 3 4 6 6 4 2 2 5 6 7 9 9 5 1 1 1 1 2 4 10 11 7 5 4 5 10 11 8 4 3 5 4 2 1 2 4 4 4 5 2 2 2 2 1 3 6 5 4 3 2 1 2 3 1 2 3 6 7 2 3 2 9 8 3 3 7 7 6 6 9 10 10 11 14 15
11 9 7 6 5 5 4 5 6 6 6 5 4 3 4 5 5 3 2 2 3 5 7 8 7 5 3 1 0 1 3 6 9 9 6 3 3 6 10 11 9 4 4 6 6 4 2 4 7 3 1 3 3 3 2 1 2 3 5 5 4 1 3 3 3 3 1 2 4 4 7 4 5 5 13 4 4 4 7 8 7 8 10 9 10 10 11 14
10 8 7 6 5 5 5 6 7 7 6 6 4 4 4 4 4 3 3 3 3 5 7 7 6 2 3 4 3 2 3 6 7 7 5 3 7 10 10 10 9 5 4 7 7 7 8 8 7 4 1 2 4 3 3 1 0 2 2 2 2 2 4 5 4 2 2 2 3 2 8 7 9 13 15 4 5 4 6 8 8 9 9 8 9 8 10 12
9 8 7 7 6 5 5 6 6 6 5 4 4 5 5 6 5 4 3 3 3 5 6 6 5 2 0 2 3 1 1 5 5 3 3 4 7 10 11 10 10 8 8 11 10 9 8 5 5 6 2 2 3 1 4 3 1 1 1 2 2 4 3 4 2 2 2 1 3 2 7 6 11 18 11 6 6 5 5 9 9 9 8 7 8 7 9 12
8 8 8 6 6 5 5 5 5 5 4 3 4 6 8 10 9 4 2 2 2 5 5 3 4 1 1 1 2 1 1 3 5 4 4 4 4 7 10 10 12 13 13 16 14 11 9 8 10 9 3 3 4 3 4 2 1 1 1 1 1 4 0 4 3 3 3 2 2 3 6 9 6 13 10 7 7 7 7 10 9 9 7 7 8 8 9 11
8 8 7 6 6 5 5 4 3 5 3 1 2 5 10 12 11 6 2 1 2 5 4 2 3 1 2 2 2 1 2 3 7 8 6 4 3 3 6 7 10 13 14 14 14 12 10 9 8 6 3 2 3 4 2 1 0 1 2 2 1 2 1 2 3 2 2 2 2 4 5 11 9 3 7 5 6 8 9 10 9 9 8 8 8 8 9 9
7 7 7 6 6 6 7 5 4 5 3 3 4 8 12 13 11 7 3 2 4 5 3 2 2 0 2 2 2 0 3 4 7 8 5 5 4 2 4 6 7 8 9 10 9 10 10 9 4 2 2 1 2 2 1 2 2 1 2 4 1 3 3 1 3 1 1 1 4 7 5 9 9 2 7 5 7 7 9 11 10 10 9 8 7 7 8 8
6 7 7 6 6 7 7 6 5 6 5 7 9 11 14 13 7 6 4 4 4 4 2 2 2 1 1 1 2 0 3 4 6 6 4 5 5 4 4 4 3 3 6 7 5 5 7 6 1 1 2 1 0 1 3 4 4 1 2 3 3 3 4 3 1 3 1 2 5 7 7 13 16 8 4 7 8 7 9 12 12 11 9 8 7 7 7 8
7 7 6 5 5 6 7 8 9 10 10 11 13 12 12 8 3 4 5 4 4 3 1 2 1 2 1 1 1 3 5 6 5 5 5 3 4 4 3 2 1 1 2 2 3 3 4 2 1 1 2 2 2 4 5 3 3 2 3 4 3 3 5 6 3 1 2 3 6 7 8 16 22 20 12 6 10 9 12 13 12 12 11 9 7 7 8 8
8 8 6 4 5 8 10 10 11 12 11 11 10 8 6 3 1 2 6 3 1 2 1 1 1 2 1 1 3 6 6 5 4 5 7 5 2 2 4 4 1 0 2 2 2 3 2 0 2 2 2 3 3 4 5 2 2 3 3 4 6 5 6 5 1 1 0 3 9 10 10 14 19 21 19 8 8 10 13 13 12 11 10 9 8 7 7 9
9 8 6 5 7 9 10 10 11 12 11 9 6 3 2 1 0 1 5 6 2 1 2 1 1 1 1 1 5 7 3 2 1 6 10 9 3 1 2 3 0 1 1 1 2 2 1 2 3 4 2 2 1 0 1 2 1 2 2 4 6 6 7 4 3 3 1 3 8 8 8 13 18 21 20 11 6 10 13 13 12 10 9 7 7 8 8 10
9 8 7 7 8 9 9 9 11 10 8 7 4 1 1 1 0 0 2 2 1 1 2 2 2 2 1 2 6 7 1 2 1 6 12 10 2 1 1 2 1 1 2 1 1 1 2 4 3 1 2 3 3 3 2 2 1 1 3 4 5 5 6 2 3 2 2 2 6 4 7 13 18 22 17 10 9 11 10 10 12 10 8 6 6 8 8 9
10 9 9 9 9 9 9 9 10 8 6 6 5 4 3 2 2 2 1 1 1 1 2 1 2 2 2 3 5 6 2 1 0 4 13 11 2 1 1 1 1 0 2 1 2 1 2 3 1 4 5 6 5 2 1 1 2 2 2 3 4 3 4 2 3 2 2 2 5 5 9 13 18 21 13 7 7 7 6 7 9 8 6 5 5 6 7 8
11 11 10 10 10 9 8 8 8 6 4 4 5 5 4 3 4 3 0 1 1 1 1 1 1 2 2 1 4 6 1 0 1 4 14 11 2 1 1 1 1 1 1 1 2 2 3 1 3 5 4 5 3 2 2 2 3 3 2 4 5 1 2 3 1 2 3 4 7 9 9 10 13 12 5 1 3 4 5 5 6 6 6 6 5 5 6 7
12 12 12 11 11 9 8 7 5 4 5 6 6 6 4 3 2 2 1 0 0 0 0 1 1 1 2 2 5 5 1 1 1 4 13 10 1 1 1 2 1 2 1 1 1 4 2 2 3 4 2 2 2 2 4 4 3 4 5 5 6 2 2 5 3 6 6 4 3 9 8 5 3 4 2 2 2 4 3 4 5 5 5 6 6 6 7 8
13 13 13 12 11 10 8 4 3 2 2 4 5 4 2 1 1 2 1 0 0 1 0 1 1 1 0 3 6 3 2 2 1 3 8 7 1 1 1 1 1 1 2 2 1 4 1 2 3 4 2 2 3 3 4 5 4 3 4 4 5 3 2 5 5 8 6 2 0 6 8 2 2 6 6 3 4 5 0 1 3 2 4 4 5 6 7 8
14 13 13 13 12 11 7 1 2 2 1 2 2 2 1 1 2 2 1 0 1 0 1 1 2 1 1 3 6 1 3 1 2 3 5 5 2 1 1 1 1 1 2 2 0 1 1 2 1 2 3 3 3 4 3 4 4 4 0 1 1 1 2 5 5 5 5 3 1 2 5 5 3 7 6 5 7 6 4 1 1 1 3 3 4 4 3 4
14 14 14 13 12 10 5 0 2 3 1 1 0 1 0 1 2 2 1 1 1 1 1 1 1 2 2 2 4 1 1 2 1 2 4 5 2 1 1 1 1 1 2 2 1 1 4 3 2 2 3 4 4 4 3 6 4 2 1 2 2 0 4 4 3 4 4 5 2 3 4 6 5 4 2 4 5 7 9 6 5 2 1 2 3 4 5 5
14 13 14 14 12 9 5 2 3 3 2 2 2 2 2 2 0 0 1 0 1 1 1 0 0 2 2 1 3 2 1 3 1 1 3 4 3 0 2 1 2 1 2 3 3 0 3 4 6 5 4 4 2 2 1 6 4 1 2 1 2 1 3 2 3 4 2 5 4 4 4 4 5 2 2 1 1 8 9 7 8 8 7 6 5 6 6 6
14 13 13 13 10 8 6 4 2 1 2 2 3 3 3 3 1 1 0 0 1 1 1 1 0 2 3 2 2 3 1 2 2 3 3 2 3 2 0 1 2 3 2 2 3 1 1 1 3 4 3 2 1 4 2 2 1 2 3 1 1 2 0 1 3 3 1 3 3 2 3 3 4 2 1 1 3 7 7 6 8 8 8 8 7 7 7 6
14 13 13 12 9 8 6 4 3 1 1 1 2 3 4 2 1 0 0 1 1 1 1 1 1 3 4 2 1 2 1 1 2 4 2 0 2 3 2 0 1 3 1 1 1 0 2 0 1 1 1 1 3 3 3 2 2 2 2 2 3 4 2 1 1 1 2 3 1 3 1 3 3 2 1 1 2 4 5 4 6 8 9 9 7 6 6 6
14 13 13 11 9 8 5 2 3 2 1 2 3 4 3 1 1 1 1 1 1 1 0 1 2 2 4 2 1 3 2 2 3 4 2 0 1 2 2 1 1 1 1 2 2 1 2 2 1 1 2 1 2 2 2 2 1 1 2 4 5 3 2 2 2 2 3 2 2 2 3 3 4 4 2 2 2 3 2 4 6 9 10 9 7 7 7 6
13 13 12 11 9 8 5 2 3 3 3 4 4 2 0 0 1 1 2 2 1 1 1 1 2 2 3 1 1 3 2 2 3 3 2 2 1 1 1 1 1 2 2 0 1 1 2 1 2 2 1 1 2 2 2 2 2 2 2 2 5 5 2 3 2 2 2 0 2 1 2 3 7 8 6 6 5 4 2 2 5 7 8 8 9 8 7 6
12 11 10 9 9 7 5 3 4 4 5 5 3 1 1 1 1 1 1 2 1 2 1 0 1 1 2 2 0 2 2 1 3 2 0 1 1 1 1 1 2 3 2 1 2 2 0 2 2 2 2 2 2 3 1 1 2 2 1 2 4 4 4 5 4 3 3 0 2 0 2 3 7 4 2 5 8 7 4 2 2 3 5 6 6 6 7 7
12 9 7 7 8 7 5 4 4 4 5 4 1 1 2 1 1 1 1 2 1 1 1 1 2 1 1 1 2 2 2 1 3 2 1 1 1 0 1 1 1 1 1 1 1 2 2 1 1 1 0 1 1 1 3 1 1 0 1 2 3 2 4 6 4 4 6 3 2 2 1 3 4 2 5 3 6 6 1 2 3 2 1 4 5 7 9 10
10 7 4 6 7 6 6 5 4 5 5 2 1 2 0 2 2 1 1 2 1 2 0 1 2 2 0 1 1 1 1 0 2 2 1 0 1 1 1 1 1 1 1 2 0 1 3 2 2 1 1 1 0 1 2 1 1 1 1 1 2 1 2 4 2 2 5 5 2 3 2 3 3 1 4 5 5 5 2 1 2 3 4 6 8 9 10 10
8 4 3 5 7 6 6 6 4 4 3 1 2 1 1 1 1 1 1 2 1 2 2 1 0 1 1 0 1 2 0 1 2 2 1 0 1 1 1 1 1 1 1 2 0 0 2 1 2 1 1 1 1 0 0 2 1 2 2 1 1 1 2 4 2 1 2 6 2 3 3 4 5 3 5 8 5 4 6 8 7 8 8 9 9 9 10 10
5 2 2 5 7 7 6 5 4 3 2 2 1 0 1 0 0 1 0 1 1 1 2 2 1 2 1 1 1 1 1 1 1 2 1 0 0 1 1 1 1 1 2 2 1 0 2 2 2 1 1 3 1 1 1 1 2 1 2 1 3 0 1 1 3 2 4 7 3 2 4 5 3 2 5 7 5 7 8 9 9 9 10 10 10 10 11 11
3 1 2 6 8 6 5 5 3 2 2 2 0 1 1 0 1 1 0 1 1 1 1 2 1 1 1 1 1 1 3 3 1 1 2 1 1 1 0 1 1 1 2 3 1 1 2 3 1 1 1 2 1 3 1 2 1 2 1 2 1 3 2 2 2 4 4 6 4 2 2 5 4 3 4 2 6 8 10 11 11 12 11 10 10 11 12 12
2 1 1 6 8 5 5 4 2 2 2 1 0 1 0 0 0 1 0 1 1 1 1 1 1 1 1 1 1 1 2 3 2 1 1 1 1 1 1 1 1 1 1 2 1 1 1 2 1 1 1 1 1 3 3 2 3 1 1 1 1 2 3 1 1 2 3 6 6 2 1 3 3 3 3 2 5 7 10 11 10 10 10 9 9 10 11 12
1 0 0 6 8 4 4 4 2 2 2 0 0 1 0 1 0 1 0 1 1 1 1 1 1 1 1 1 1 1 1 1 1 1 1 1 1 1 1 1 0 2 0 1 1 1 2 1 2 1 1 3 2 2 2 1 2 2 3 2 1 1 1 2 2 1 2 5 6 5 5 4 1 2 3 5 5 6 7 8 8 8 9 9 9 10 11 12
1 1 1 7 8 2 3 4 3 2 1 0 0 1 0 0 1 1 0 1 1 0 1 0 1 1 1 0 0 1 1 1 1 1 1 1 1 1 2 2 2 1 1 1 1 1 1 2 3 2 3 4 1 2 3 3 2 1 2 3 2 2 1 3 4 1 0 4 4 5 8 5 1 2 4 7 4 5 6 7 9 9 11 11 10 11 12 13
1 1 1 7 8 2 1 2 1 1 0 0 1 0 0 0 1 0 0 1 1 0 1 0 0 1 1 1 0 1 1 1 1 1 2 2 1 2 2 2 2 2 1 0 1 0 1 1 3 5 5 2 2 3 2 3 2 1 1 1 0 1 2 4 5 1 1 3 1 1 6 5 0 3 5 5 3 4 6 9 11 11 12 13 13 14 14 13
1 1 1 8 9 2 1 2 0 1 1 1 1 0 0 0 1 0 1 2 1 0 0 0 1 1 1 1 1 2 2 2 2 1 1 1 0 2 2 1 2 2 1 1 1 1 1 1 2 5 4 1 2 2 2 1 1 1 1 1 1 0 0 2 3 1 2 4 3 4 6 3 2 4 5 4 3 4 7 10 12 12 12 13 14 14 14 14
1 1 1 9 9 0 1 1 0 1 1 0 1 1 0 1 1 0 1 1 1 1 1 0 0 0 0 0 1 1 1 1 1 1 0 1 0 3 3 2 2 1 0 1 1 1 2 1 0 4 5 1 1 1 1 1 1 2 1 2 1 2 3 1 1 1 3 6 7 8 8 2 4 2 4 3 4 9 11 11 12 13 13 14 14 14 15 15
1 0 1 7 9 5 1 0 1 0 0 1 1 1 0 0 1 1 1 0 0 1 1 1 0 0 1 1 1 1 1 1 1 1 1 1 0 3 4 3 2 1 1 2 3 2 2 1 1 4 5 4 4 4 2 2 1 1 1 2 2 2 3 2 2 3 4 4 6 8 9 6 5 8 14 12 9 13 14 14 14 14 14 16 15 15 15 16
0 1 1 3 6 6 2 1 1 1 1 0 1 1 1 0 1 0 1 1 1 0 0 0 1 1 1 1 2 2 2 1 0 1 1 2 1 2 3 3 1 1 2 4 3 1 1 1 3 6 6 6 8 5 2 2 5 6 5 3 3 3 2 2 3 4 4 3 5 8 10 14 15 16 17 12 11 13 14 15 16 16 17 17 15 15 16 16
1 1 1 1 1 2 2 1 2 1 0 1 1 0 1 2 1 0 1 1 1 0 1 0 1 2 1 1 2 2 1 1 1 1 1 1 1 1 1 1 0 2 4 3 2 0 1 3 2 4 7 9 10 7 1 1 7 11 10 6 2 3 4 4 7 6 3 4 6 5 7 13 16 17 16 13 13 14 14 16 17 16 17 17 16 17 18 18
1 1 0 1 0 1 1 2 2 1 1 1 0 0 1 2 2 1 1 0 0 1 1 1 2 3 3 1 1 1 1 1 2 2 1 0 1 1 1 0 1 3 3 1 0 1 2 3 1 1 5 8 9 10 6 4 7 8 8 9 6 3 5 7 9 10 5 6 10 11 13 16 18 18 16 12 12 14 15 16 16 16 18 18 17 19 20 18
1 1 0 1 0 1 1 1 1 1 1 1 0 1 1 1 1 1 1 1 1 1 1 2 2 2 2 2 1 1 1 1 2 2 1 1 1 1 1 1 1 1 3 0 1 1 2 2 2 1 5 8 6 6 4 2 3 4 5 7 7 5 6 8 9 11 8 10 14 17 20 19 15 13 12 11 12 13 13 15 16 18 19 19 19 22 20 16
0 1 1 1 2 2 1 1 0 0 1 0 0 0 1 2 2 1 1 2 1 1 2 2 1 1 1 2 3 4 2 1 2 3 2 2 2 2 1 1 2 1 1 1 2 1 1 1 2 1 5 5 0 1 0 2 3 4 3 3 4 4 4 4 5 7 6 10 13 15 17 15 8 7 11 13 12 12 14 16 18 19 19 20 21 22 18 15
1 2 2 2 2 1 1 0 0 1 0 0 1 1 1 2 2 1 1 2 1 1 3 3 1 2 1 2 4 5 2 1 3 3 2 2 2 0 0 1 1 2 1 1 1 1 1 1 1 2 5 4 2 1 4 1 2 2 3 9 9 6 3 1 4 5 6 9 13 12 11 9 7 10 14 14 14 15 15 17 19 19 20 21 21 18 15 15
3 2 2 1 1 0 0 1 0 1 0 0 0 1 1 1 1 1 1 1 0 1 1 1 1 1 1 2 3 3 2 1 2 2 1 1 1 2 1 2 2 1 2 2 0 1 0 2 0 2 4 3 1 6 8 3 2 3 5 9 9 8 6 5 6 8 9 10 10 9 8 9 11 14 16 18 19 18 16 16 17 19 21 22 19 14 14 17
Wind_Direction
54 60 65 67 63 60 60 58 59 60 67 78 80 65 36 36 25 27 29 33 61 56 41 16 353 345 342 333 324 324 352 43 56 55 54 15 350 343 334 335 344 353 357 359 29 265 294 36 66 95 85 57 13 357 75 31 13 253 209 214 228 196 199 188 184 180 86 131 159 173 189 206 194 171 164 160 212 218 199 212 216 235 241 244 292 325 161 161
50 57 61 65 63 60 62 60 60 60 61 64 61 50 19 3 358 16 42 63 71 54 37 14 352 344 336 327 308 297 319 7 51 47 28 358 350 345 335 336 343 348 351 4 51 328 281 9 65 86 102 77 358 12 173 356 345 257 161 231 235 174 153 90 180 160 83 118 154 174 192 214 209 166 165 207 211 197 220 219 213 235 231 217 223 191 166 168
50 57 59 61 62 60 65 64 61 60 55 54 45 30 5 349 346 9 46 73 55 32 22 4 356 350 343 352 332 279 232 305 44 22 1 353 349 348 343 334 344 346 339 349 43 193 182 115 117 115 114 78 30 12 159 6 335 358 220 243 224 92 93 59 202 156 86 47 157 170 179 217 218 154 165 220 225 202 221 221 203 224 226 203 176 170 171 175
52 56 56 55 58 57 61 67 65 61 54 46 33 17 356 335 316 299 303 358 360 3 3 349 344 333 332 357 353 5 177 188 58 350 347 353 349 350 345 337 345 338 321 315 136 164 134 102 90 53 90 123 56 354 7 18 334 128 255 276 87 107 130 100 280 138 81 328 177 157 154 213 202 159 191 211 226 223 228 224 213 221 220 192 164 171 176 180
50 49 47 46 51 54 55 63 67 66 58 47 38 27 16 1 340 275 250 259 316 335 342 328 314 303 304 344 354 64 203 210 39 349 349 351 346 350 342 345 349 335 299 202 156 165 150 95 89 62 55 129 71 164 77 26 341 119 341 333 83 216 141 100 17 109 119 75 160 157 174 198 147 188 217 210 226 240 233 225 223 225 215 177 165 173 177 185
42 39 36 35 39 47 48 54 63 67 64 57 56 46 32 25 27 32 220 247 325 346 347 326 292 275 267 338 8 53 234 314 9 346 351 347 345 356 342 341 350 348 209 197 172 170 163 97 176 117 63 93 28 38 70 32 290 238 117 126 151 285 121 120 129 154 192 176 170 177 182 154 169 218 224 219 233 245 58 45 242 224 139 156 163 169 179 190
31 29 26 26 29 37 39 41 50 59 64 62 67 49 28 25 31 51 86 99 46 12 4 353 315 272 246 301 23 51 63 52 350 343 352 347 353 4 351 336 349 14 150 213 201 188 162 177 180 140 101 105 90 95 43 3 230 287 141 149 195 359 117 123 163 180 223 206 174 152 171 191 207 224 222 228 238 238 94 65 20 81 118 151 164 176 188 194
18 19 19 19 22 29 30 31 39 49 59 56 58 33 11 16 27 53 80 84 47 17 12 16 18 330 244 267 327 70 62 18 335 347 356 354 11 16 21 360 359 53 131 166 205 206 178 187 166 179 138 82 157 123 16 283 156 54 137 157 156 97 111 92 142 164 187 216 128 178 215 214 209 256 287 243 242 235 183 122 115 135 155 172 183 190 194 198
10 11 12 12 17 23 23 27 38 46 51 50 48 26 359 10 19 35 54 52 26 13 13 20 29 14 279 56 204 220 39 345 337 349 359 13 22 26 39 31 21 65 130 93 76 189 185 188 166 199 145 97 156 116 4 277 161 83 125 154 152 135 144 144 159 127 163 197 155 216 233 210 156 310 269 249 246 227 173 165 170 166 185 193 197 200 198 203
6 7 8 11 20 27 29 35 43 46 49 51 47 27 354 358 360 1 11 12 4 3 4 12 22 14 308 228 225 201 38 355 345 352 7 23 12 29 42 36 33 63 98 78 60 46 250 207 151 170 121 108 136 82 335 285 63 101 118 126 123 139 166 174 185 130 184 207 176 241 260 209 129 270 257 249 242 172 170 189 187 190 207 204 203 206 204 209
6 8 12 21 37 45 47 48 45 43 46 47 40 16 349 343 346 344 320 319 335 338 346 358 11 32 65 87 182 75 30 356 351 0 15 29 37 47 42 35 33 55 94 75 55 52 83 132 129 139 125 131 134 79 32 359 88 110 132 129 106 146 187 180 186 158 223 198 171 261 277 230 130 225 246 226 100 163 191 198 194 208 218 210 208 208 208 215
13 20 27 38 50 53 54 52 42 38 43 45 37 11 350 340 332 318 307 307 308 315 325 340 352 29 76 62 60 65 21 7 6 12 21 56 60 51 45 37 37 55 108 94 69 79 106 124 116 80 19 171 151 95 99 139 62 123 180 182 140 225 209 188 170 151 234 190 151 252 277 233 178 220 240 171 123 171 197 208 205 214 220 213 213 212 215 218
29 37 38 43 45 46 49 46 41 36 41 50 44 19 5 356 332 304 316 320 301 310 312 329 344 324 344 56 69 63 13 19 24 38 48 72 64 57 58 50 52 74 108 106 93 87 103 133 115 88 57 115 117 107 132 136 300 173 242 287 219 248 222 174 138 124 211 166 140 219 290 261 195 216 225 126 147 175 200 222 212 213 217 212 215 217 222 219
41 40 35 33 33 38 33 31 37 29 29 64 59 28 14 3 345 319 304 320 311 315 307 319 353 2 85 97 124 59 26 360 20 55 66 73 79 74 73 65 70 84 96 98 91 80 92 113 110 104 62 37 98 142 136 123 288 218 260 273 246 275 201 126 137 163 196 140 134 207 273 286 241 210 193 140 167 189 222 229 217 214 211 213 216 220 227 222
38 32 25 21 25 31 21 10 4 359 358 76 33 359 355 354 351 339 291 296 339 337 321 277 327 41 114 106 168 90 36 359 14 32 42 62 101 108 89 83 84 87 87 90 88 76 83 99 92 89 69 37 142 155 130 121 128 8 274 238 174 264 265 128 142 189 232 115 165 217 249 282 288 202 152 143 174 201 236 237 227 222 214 217 217 220 232 230
26 22 17 17 26 28 20 10 352 346 326 274 301 315 325 336 344 342 308 281 319 337 329 264 307 181 151 88 163 204 24 8 6 13 28 49 59 109 125 106 93 91 84 85 94 76 61 72 69 37 91 148 187 165 194 217 211 170 264 272 231 237 285 336 128 139 304 123 198 227 258 285 286 139 123 148 181 198 234 242 237 231 223 224 223 223 233 237
18 18 16 20 30 24 14 12 4 344 311 293 299 300 309 318 327 346 327 273 305 341 347 320 349 119 115 83 153 181 343 336 350 4 25 42 43 72 142 136 96 101 90 77 85 65 35 54 119 275 79 113 170 219 252 255 249 180 203 267 254 232 274 290 170 103 117 213 222 221 236 266 272 265 187 168 181 204 235 244 244 240 234 228 228 230 233 241
21 21 21 26 23 6 350 346 340 326 311 302 301 298 306 311 302 349 338 277 280 311 319 2 345 180 98 87 205 325 309 308 344 8 17 23 31 56 97 129 144 165 126 81 48 35 12 34 193 195 118 178 190 210 245 281 301 301 256 263 280 245 239 256 264 103 151 218 241 229 231 260 272 279 274 199 174 216 245 249 251 251 248 240 235 237 240 244
24 25 23 14 351 343 338 335 333 327 320 313 310 308 315 326 226 348 11 18 292 272 248 7 323 240 74 68 307 321 299 285 337 13 15 5 348 45 56 54 83 203 219 218 47 33 350 82 187 227 211 208 197 222 259 329 355 303 281 276 284 272 256 256 235 90 196 248 251 244 244 264 274 280 285 267 184 223 253 256 257 256 252 248 241 240 242 246
22 25 18 357 342 339 337 334 338 339 335 331 329 334 337 52 136 354 39 42 52 306 300 317 315 307 42 6 315 326 292 224 352 23 15 1 355 139 31 19 90 114 24 262 27 40 299 256 229 248 245 187 151 197 318 42 47 263 245 262 262 264 276 277 103 106 124 266 261 251 253 272 280 280 285 291 256 250 259 259 262 259 253 250 245 247 245 249
19 19 8 354 346 343 340 338 347 354 357 359 12 53 76 193 296 51 56 35 77 286 310 294 272 291 296 286 323 336 293 192 109 33 15 4 9 186 341 17 227 209 48 301 302 90 244 261 246 232 83 101 106 105 101 103 112 237 237 265 266 251 267 301 86 124 152 259 267 269 280 280 281 281 287 302 288 277 272 268 271 271 267 263 253 254 252 254
16 10 1 354 349 343 341 343 353 6 19 26 52 93 107 148 145 112 111 139 124 323 312 303 285 298 284 266 329 340 284 209 150 29 10 2 14 341 355 83 232 232 63 249 247 218 240 251 105 89 104 106 98 104 131 153 182 226 234 267 277 266 277 301 87 117 163 255 285 302 302 285 277 282 296 320 300 293 291 277 281 287 283 274 262 258 258 263
15 9 2 356 351 344 341 345 354 11 37 49 71 99 112 127 139 134 141 140 105 17 332 356 320 320 326 292 346 344 296 208 270 25 3 355 41 21 326 113 93 130 135 225 237 267 269 281 87 100 128 129 116 134 164 182 212 227 234 262 273 329 319 270 87 69 221 237 291 297 287 273 271 279 295 340 300 291 281 265 268 275 272 272 274 268 264 265
14 11 5 360 355 347 340 342 352 21 54 70 85 100 117 132 137 147 144 12 129 106 7 342 279 282 342 360 341 336 122 94 298 2 357 358 90 270 322 83 115 171 163 73 225 252 272 56 101 128 136 157 165 171 191 231 251 226 219 246 274 314 293 264 328 328 275 208 276 294 284 259 259 293 294 136 222 262 251 253 258 246 244 257 267 266 257 256
10 8 6 2 357 351 341 344 26 46 52 65 88 96 103 133 133 152 148 341 232 117 8 236 207 214 293 340 346 339 159 97 3 330 349 7 38 255 103 93 275 181 122 111 221 257 299 69 154 155 150 190 203 219 209 227 269 254 219 242 287 326 304 279 318 324 295 218 71 333 318 295 74 327 328 34 327 308 271 247 277 241 223 234 249 251 241 243
7 5 4 2 0 357 351 14 51 360 329 37 95 115 80 75 74 86 111 288 192 136 338 201 176 20 331 338 352 338 189 94 25 346 4 21 12 247 147 142 320 58 137 154 191 272 87 90 192 167 176 186 218 253 208 190 261 287 247 30 3 18 301 291 315 318 299 299 12 16 299 279 334 326 336 360 329 352 55 47 352 215 219 222 245 259 257 266
6 4 2 1 2 3 9 44 337 333 320 359 168 165 148 44 70 65 330 292 168 168 318 186 176 7 15 336 339 296 246 354 17 31 20 9 6 223 228 174 176 90 153 206 281 169 120 138 189 175 187 201 229 262 182 178 245 293 100 40 51 296 285 292 300 275 287 321 313 179 230 266 295 308 1 329 323 39 52 43 52 59 32 358 322 336 341 339
4 4 2 0 1 7 19 353 329 345 330 291 253 227 291 321 7 322 287 291 26 85 35 341 184 20 18 327 360 36 326 332 326 47 5 354 19 181 254 234 190 114 124 236 268 139 118 174 190 176 191 222 236 351 139 196 243 15 110 3 25 321 289 272 271 268 291 323 296 164 177 248 272 247 134 248 37 56 40 32 36 28 30 22 6 5 354 349
360 2 2 359 359 4 4 353 349 333 301 287 232 246 307 321 255 221 102 204 341 68 61 333 204 7 349 298 22 46 354 344 4 344 337 356 34 45 339 76 122 108 101 256 273 347 66 219 202 186 212 249 55 40 22 220 249 88 127 144 154 164 181 181 259 273 214 272 289 107 155 257 279 240 197 245 70 46 19 26 27 16 25 26 17 9 357 356
355 359 1 360 1 355 347 3 30 14 285 270 250 293 319 323 215 189 325 265 355 44 244 318 286 323 346 325 9 29 360 5 347 324 330 154 22 50 88 314 124 127 122 275 270 90 82 33 278 225 270 16 74 66 32 44 70 132 185 253 238 197 166 138 195 238 235 236 336 37 295 293 301 265 44 47 76 35 359 7 20 16 24 25 19 10 2 360
352 355 357 0 5 359 355 30 27 17 346 311 308 317 324 359 103 167 290 290 26 350 309 24 351 351 22 19 342 16 11 347 338 331 17 122 318 74 124 233 181 178 215 202 216 162 125 182 180 74 21 41 124 113 69 83 122 218 257 291 286 251 185 180 154 177 247 246 65 3 285 274 270 267 326 41 100 71 10 348 6 11 14 14 10 8 7 359
349 349 353 360 6 9 25 44 1 358 346 336 333 328 284 343 314 223 300 319 323 347 12 24 352 15 29 355 278 353 335 333 5 8 19 346 329 69 19 326 4 277 270 129 210 225 182 168 88 80 65 22 245 203 148 150 165 234 257 290 301 305 284 258 252 218 255 36 95 4 307 261 258 270 302 331 1 47 54 353 357 359 0 4 2 357 355 351
346 345 351 358 3 12 26 17 356 354 345 342 338 41 87 4 294 190 294 316 343 9 25 328 332 350 324 290 306 352 285 270 11 17 36 306 298 71 40 348 338 292 290 8 326 311 259 118 102 157 131 38 281 250 236 171 156 213 262 320 308 318 309 291 299 287 282 52 140 141 349 266 264 275 329 349 9 39 44 348 314 326 345 346 341 338 340 347
341 344 351 358 4 12 13 358 353 350 347 348 331 54 50 299 264 152 277 288 310 352 30 359 327 295 270 330 2 338 251 187 8 329 281 263 256 312 130 154 336 305 249 270 312 339 293 235 101 144 63 5 265 286 342 354 136 147 34 336 287 284 288 291 314 308 298 305 162 172 258 231 243 103 105 56 40 63 88 208 215 228 329 322 329 347 351 351
339 340 351 4 9 13 8 358 351 347 344 355 57 64 90 256 261 209 267 296 310 318 270 167 310 304 139 59 29 10 259 128 25 321 296 336 290 349 63 74 25 347 260 270 75 63 265 264 55 45 329 333 196 90 350 291 196 108 90 267 257 270 280 278 308 312 297 302 209 188 227 223 246 9 108 112 100 112 134 110 59 33 26 360 357 1 354 348
338 338 356 11 12 11 9 2 357 358 356 42 70 71 200 241 284 190 263 350 349 326 306 235 344 329 298 332 63 76 71 293 339 334 282 208 311 13 53 45 29 344 333 316 244 142 274 261 88 103 144 50 5 32 308 296 298 137 193 231 105 41 301 273 275 138 244 279 249 179 245 244 268 307 127 135 118 70 31 18 15 18 17 5 3 359 348 343
339 351 25 15 8 3 6 8 11 19 42 90 97 218 227 212 15 211 21 357 282 330 321 292 10 358 296 299 354 34 346 307 325 331 302 215 62 136 121 80 49 321 349 319 247 124 293 277 97 97 129 91 359 258 106 2 317 246 221 111 100 90 299 273 279 275 255 268 250 165 264 266 278 296 155 140 78 32 18 9 2 6 7 1 358 351 343 339
349 109 65 15 4 1 10 18 25 44 70 76 136 245 234 136 12 330 36 355 274 235 279 261 338 10 275 285 308 335 333 332 357 344 313 315 122 142 90 87 117 327 341 300 275 93 280 276 66 76 195 100 161 235 190 110 21 327 315 95 95 262 243 163 266 294 286 281 276 182 241 265 246 216 204 134 48 19 3 5 2 358 355 349 347 343 339 336
7 127 69 3 355 360 13 10 22 47 73 71 270 234 270 244 63 37 336 317 273 230 242 251 320 3 186 239 303 323 343 335 345 340 306 333 54 117 58 36 133 141 327 309 301 107 226 281 315 152 185 359 190 216 233 154 116 60 210 138 45 286 279 261 274 304 287 287 295 279 239 262 227 175 169 106 56 23 5 3 352 341 336 333 337 338 335 334
40 122 281 354 351 356 11 13 44 48 54 56 270 160 30 301 130 94 320 296 261 239 285 213 194 286 244 205 293 311 11 315 296 301 299 333 337 101 85 353 90 138 270 317 296 216 163 235 273 163 168 270 236 196 262 242 150 182 201 201 184 187 287 292 253 275 284 282 290 283 275 270 187 120 124 125 86 34 11 350 332 325 325 328 335 336 335 332
80 44 311 355 353 335 2 28 54 34 53 120 245 185 90 337 164 111 148 257 282 341 354 270 175 270 290 308 256 222 265 259 225 270 264 210 266 42 65 2 356 69 222 216 202 242 194 217 264 268 248 258 270 58 359 342 344 292 242 238 222 188 237 274 261 164 109 273 281 289 287 287 159 137 130 124 85 26 7 342 332 328 328 335 340 337 335 330
78 21 317 357 359 350 24 48 66 359 201 102 351 244 21 331 198 71 124 212 283 359 63 7 168 205 252 302 306 207 252 263 189 225 254 212 277 8 59 32 344 322 286 270 100 359 295 242 253 264 264 277 33 50 21 356 21 28 306 287 142 192 230 264 276 293 176 248 312 302 272 280 63 133 131 113 69 20 1 345 339 335 334 338 337 332 329 323
52 299 320 359 360 9 73 48 118 345 56 35 341 245 62 228 194 228 186 201 237 227 182 244 194 214 244 256 250 205 217 238 200 186 262 239 15 33 54 27 325 286 255 246 106 120 238 238 244 265 267 129 114 128 114 65 136 188 226 135 166 204 353 286 293 345 257 238 240 263 259 267 98 136 150 134 92 13 353 349 341 333 331 331 329 327 323 320
24 241 318 357 360 44 157 26 90 341 11 341 353 101 151 233 207 244 244 217 212 189 195 237 181 181 80 156 262 217 196 246 232 167 347 249 80 56 50 17 324 309 344 315 15 80 236 221 215 288 299 322 181 180 148 146 180 229 221 114 139 90 85 56 145 111 258 235 223 252 267 252 135 158 280 305 14 360 349 348 341 332 328 327 326 325 322 321
53 118 261 355 20 59 108 359 136 144 344 288 330 19 16 221 186 290 289 215 193 215 188 48 32 184 100 139 237 223 211 252 277 23 28 274 197 75 48 9 331 324 348 322 323 317 275 254 205 278 302 309 301 316 331 331 359 230 208 143 177 170 151 224 259 243 252 220 201 237 265 280 286 302 307 315 350 353 342 340 336 329 323 320 320 321 320 320
50 45 300 338 27 57 76 20 45 109 140 254 298 359 345 218 132 295 258 204 125 150 208 71 167 181 122 185 248 244 215 203 359 348 303 259 235 75 37 4 10 345 320 301 297 309 308 270 238 246 254 265 286 315 33 346 304 286 281 244 188 177 174 221 255 250 259 274 245 239 259 281 293 302 305 319 348 345 335 333 329 322 317 316 316 316 315 314
44 111 8 317 2 48 71 58 32 45 63 288 265 104 303 282 292 100 205 218 84 155 246 142 178 211 180 184 249 254 214 161 135 276 258 250 299 81 86 18 332 315 316 296 272 55 270 264 246 240 246 258 286 304 359 253 280 281 289 287 229 162 161 193 230 248 292 306 276 255 262 279 292 301 308 329 344 334 327 323 319 315 312 313 313 313 313 313
31 144 90 315 279 45 33 18 29 59 60 5 252 136 302 300 309 284 181 90 90 209 239 181 197 229 215 174 259 266 282 232 205 222 228 262 303 216 148 136 259 306 317 302 36 15 258 271 16 58 265 270 283 287 273 252 263 267 274 283 279 216 178 199 237 257 271 271 275 290 294 289 292 299 313 337 335 321 317 315 312 312 311 313 315 314 314 315
52 119 97 343 7 106 28 352 26 94 74 55 128 197 225 244 282 290 154 143 164 172 235 251 235 215 201 194 225 245 261 261 260 263 207 187 262 245 246 264 172 315 315 270 61 13 235 261 55 82 283 285 280 286 285 241 258 271 268 277 284 259 221 221 248 268 267 255 265 283 291 288 287 298 316 328 318 312 313 312 313 314 315 318 317 314 316 318
155 159 135 50 80 92 51 13 125 155 71 60 249 197 198 224 254 303 196 214 244 154 187 243 275 106 160 190 209 235 242 215 268 263 193 188 256 229 245 274 137 96 348 69 63 7 260 320 67 96 292 294 203 86 228 179 244 283 303 338 334 297 251 231 260 278 272 263 271 281 285 286 295 325 323 316 313 317 319 320 321 319 319 320 315 312 314 316
110 118 132 127 109 77 330 52 104 277 182 155 256 181 190 220 238 292 254 229 284 222 196 217 152 110 102 169 218 250 271 244 270 269 200 228 290 278 303 327 162 154 135 117 29 20 275 295 75 41 309 294 125 6 297 241 188 225 28 24 7 347 336 273 268 272 266 280 291 291 289 299 331 337 322 314 318 323 324 326 322 316 316 315 311 309 311 316
126 95 101 96 86 90 343 49 71 314 358 41 227 175 217 252 188 275 280 192 104 333 257 235 168 168 239 214 229 278 351 351 304 338 359 264 355 51 57 63 67 113 148 149 168 15 300 266 359 17 300 272 15 331 312 297 173 147 71 29 6 353 336 302 287 288 281 284 296 299 303 322 331 329 323 321 323 324 326 327 319 312 311 310 309 313 318 321